Location: Peterborough
(44.3091°N, 78.3197°W)
Time: 23:39:30
(UTC-04:00)

Altair - Pass Details

Date: 09 August 2024
Orbit: 1501 x 1682 km, 47.2° (Epoch: 19 September)

Event Time Altitude Azimuth Distance (km) Brightness Sun altitude
Rises 21:12:06 0° 292° (WNW) 4,710 12.3 -8.1°
Reaches altitude 10° 21:15:49 10° 281° (W) 3,700 10.8 -8.7°
Maximum altitude 21:22:56 26° 230° (SW) 2,644 8.9 -9.8°
Drops below altitude 10° 21:29:58 10° 179° (S) 3,641 9.1 -10.8°
Enters shadow 21:33:31 - 167° (SSE) 4,587 9.6 -11.3°
